DW6707 Weather Reports


Display with metric or nautical units.
time (UTC)temp
F
wind
direction
speed
MPH
gust
MPH
rain 1hr
in
rain 24hr
in
rain mn
in
humidity
%
barometer
mb
20200401112532 47 274 0.0 1.0 0.00 0.00 0.00 83 1013.8
20200401112029 47 274 0.0 1.0 0.00 0.00 0.00 85 1013.7
20200401111528 47 274 1.0 1.0 0.00 0.00 0.00 85 1013.7
20200401111032 47 274 0.0 0.0 0.00 0.00 0.00 85 1013.8
20200401110526 47 274 0.0 0.0 0.00 0.00 0.00 85 1013.8
20200401110030 47 274 0.0 0.0 0.00 0.00 0.00 85 1013.8
20200401105531 47 274 0.0 0.0 0.00 0.00 0.00 85 1013.8
20200401105029 47 274 0.0 0.0 0.00 0.00 0.00 84 1013.8
20200401104529 47 274 0.0 0.0 0.00 0.00 0.00 84 1013.9
20200401104029 47 274 0.0 0.0 0.00 0.00 0.00 84 1013.9
20200401103531 47 274 0.0 0.0 0.00 0.00 0.00 83 1013.9
20200401103032 47 274 0.0 0.0 0.00 0.00 0.00 83 1013.9
20200401102529 48 274 0.0 2.0 0.00 0.00 0.00 82 1013.9
20200401102028 48 273 0.0 3.0 0.00 0.00 0.00 82 1014.0
20200401101534 48 271 1.0 3.0 0.00 0.00 0.00 82 1013.9
20200401101025 48 273 2.0 3.0 0.00 0.00 0.00 82 1013.9
20200401100531 48 310 0.0 3.0 0.00 0.00 0.00 81 1013.9
20200401100028 49 310 0.0 3.0 0.00 0.00 0.00 81 1013.9
20200401095535 49 268 2.0 3.0 0.00 0.00 0.00 81 1013.9
20200401095031 49 304 0.0 3.0 0.00 0.00 0.00 80 1013.9
20200401094528 49 274 1.0 3.0 0.00 0.00 0.00 79 1013.9
20200401094031 49 302 0.0 5.0 0.00 0.00 0.00 78 1013.9
20200401093533 50 296 0.0 5.0 0.00 0.00 0.00 77 1014.0
20200401093031 50 233 1.0 2.0 0.00 0.00 0.00 76 1014.1
20200401092529 50 169 0.0 0.0 0.00 0.00 0.00 75 1014.0
20200401092030 51 144 0.0 0.0 0.00 0.00 0.00 75 1014.0
20200401091029 51 143 0.0 1.0 0.00 0.00 0.00 76 1014.0
20200401090530 51 144 0.0 2.0 0.00 0.00 0.00 76 1014.1
20200401090034 52 144 0.0 2.0 0.00 0.00 0.00 76 1014.2
20200401085530 52 143 0.0 2.0 0.00 0.00 0.00 76 1014.1
20200401085032 52 144 1.0 2.0 0.00 0.00 0.00 75 1014.2
20200401084529 52 153 1.0 2.0 0.00 0.00 0.00 74 1014.2
20200401084026 52 144 0.0 2.0 0.00 0.00 0.00 73 1014.3
20200401083534 53 144 0.0 2.0 0.00 0.00 0.00 72 1014.2
20200401083031 53 144 0.0 1.0 0.00 0.00 0.00 71 1014.3
20200401082543 53 144 0.0 1.0 0.00 0.00 0.00 69 1014.3
20200401082028 53 144 0.0 2.0 0.00 0.00 0.00 68 1014.3
20200401081525 54 150 0.0 2.0 0.00 0.00 0.00 67 1014.3
20200401081030 54 150 0.0 7.0 0.00 0.00 0.00 65 1014.3
20200401080532 55 146 0.0 7.0 0.00 0.00 0.00 65 1014.4
20200401080029 54 156 2.0 5.0 0.00 0.00 0.00 66 1014.4
20200401075527 54 156 1.0 5.0 0.00 0.00 0.00 66 1014.3
20200401075029 54 144 4.0 5.0 0.00 0.00 0.00 66 1014.3
20200401074530 55 155 1.0 5.0 0.00 0.00 0.00 65 1014.3
20200401074030 55 148 1.0 4.0 0.00 0.00 0.00 64 1014.4
20200401073529 55 146 0.0 4.0 0.00 0.00 0.00 63 1014.4
20200401073033 56 233 0.0 2.0 0.00 0.00 0.00 62 1014.4
20200401072527 56 233 1.0 2.0 0.00 0.00 0.00 61 1014.5
20200401072025 56 233 0.0 4.0 0.00 0.00 0.00 61 1014.6
20200401071531 56 295 0.0 5.0 0.00 0.00 0.00 61 1014.6
20200401071031 56 243 2.0 5.0 0.00 0.00 0.00 61 1014.6
20200401070530 56 252 0.0 2.0 0.00 0.00 0.00 62 1014.5
20200401070031 56 153 0.0 2.0 0.00 0.00 0.00 62 1014.6
20200401065528 57 155 0.0 2.0 0.00 0.00 0.00 61 1014.5
20200401065034 57 189 0.0 2.0 0.00 0.00 0.00 61 1014.5
20200401064533 57 274 0.0 2.0 0.00 0.00 0.00 62 1014.6
20200401064031 56 170 0.0 1.0 0.00 0.00 0.00 62 1014.6
20200401063528 57 144 0.0 1.0 0.00 0.00 0.00 62 1014.6
20200401063029 57 155 0.0 2.0 0.00 0.00 0.00 61 1014.7
20200401062531 58 155 0.0 2.0 0.00 0.00 0.00 60 1014.6
20200401062031 58 153 2.0 1.0 0.00 0.00 0.00 60 1014.7
20200401061530 58 153 0.0 4.0 0.00 0.00 0.00 58 1014.7
20200401061031 58 153 0.0 4.0 0.00 0.00 0.00 58 1014.8
20200401060534 59 216 1.0 3.0 0.00 0.00 0.00 58 1014.8
20200401060028 59 217 0.0 3.0 0.00 0.00 0.00 58 1014.8
20200401055534 59 211 0.0 3.0 0.00 0.00 0.00 58 1014.8
20200401055031 59 205 1.0 3.0 0.00 0.00 0.00 58 1014.8
20200401054528 59 213 0.0 3.0 0.00 0.00 0.00 58 1014.9
20200401054034 60 211 2.0 4.0 0.00 0.00 0.00 58 1015.0
20200401053533 60 238 0.0 4.0 0.00 0.00 0.00 58 1015.0
20200401053030 60 209 2.0 5.0 0.00 0.00 0.00 57 1015.0
20200401052532 60 171 0.0 5.0 0.00 0.00 0.00 57 1015.0
20200401052029 60 192 1.0 5.0 0.00 0.00 0.00 58 1015.0
20200401051534 60 217 3.0 5.0 0.00 0.00 0.00 59 1015.0
20200401051031 60 213 4.0 5.0 0.00 0.00 0.00 59 1015.0
20200401050532 60 228 2.0 5.0 0.00 0.00 0.00 59 1015.1
20200401050029 61 215 2.0 4.0 0.00 0.00 0.00 59 1015.1
20200401045531 61 207 1.0 5.0 0.00 0.00 0.00 59 1015.2
20200401045031 61 237 4.0 6.0 0.00 0.00 0.00 58 1015.2
20200401044534 61 215 2.0 6.0 0.00 0.00 0.00 58 1015.2
20200401044029 61 223 2.0 5.0 0.00 0.00 0.00 58 1015.2
20200401043527 61 210 1.0 4.0 0.00 0.00 0.00 57 1015.1
20200401043032 61 221 2.0 5.0 0.00 0.00 0.00 57 1015.2
20200401042527 62 250 1.0 5.0 0.00 0.00 0.00 56 1015.2
20200401042034 62 232 3.0 3.0 0.00 0.00 0.00 56 1015.2
20200401041531 62 214 1.0 4.0 0.00 0.00 0.00 55 1015.2
20200401041027 62 228 0.0 4.0 0.00 0.00 0.00 55 1015.2
20200401040533 62 238 2.0 4.0 0.00 0.00 0.00 54 1015.3
20200401040032 62 228 3.0 3.0 0.00 0.00 0.00 54 1015.1
20200401035529 63 238 0.0 3.0 0.00 0.00 0.00 54 1015.2
20200401035028 63 215 0.0 3.0 0.00 0.00 0.00 54 1015.2
20200401034532 63 205 0.0 2.0 0.00 0.00 0.00 54 1015.3
20200401034029 63 210 1.0 3.0 0.00 0.00 0.00 54 1015.3
20200401033529 63 219 1.0 3.0 0.00 0.00 0.00 54 1015.2
20200401033030 63 201 1.0 1.0 0.00 0.00 0.00 55 1015.3
20200401032526 64 202 1.0 2.0 0.00 0.00 0.00 54 1015.3
20200401032030 64 217 1.0 2.0 0.00 0.00 0.00 54 1015.3
20200401031529 65 215 0.0 3.0 0.00 0.00 0.00 53 1015.2
20200401031032 65 223 1.0 3.0 0.00 0.00 0.00 52 1015.2
20200401030531 65 221 0.0 3.0 0.00 0.00 0.00 52 1015.2
20200401030028 65 223 2.0 3.0 0.00 0.00 0.00 53 1015.1
20200401025534 65 217 1.0 2.0 0.00 0.00 0.00 54 1015.1
20200401025030 66 231 0.0 2.0 0.00 0.00 0.00 53 1015.1
20200401024532 66 236 0.0 2.0 0.00 0.00 0.00 53 1015.1
20200401024030 66 236 0.0 2.0 0.00 0.00 0.00 52 1015.1
20200401023531 67 227 1.0 3.0 0.00 0.00 0.00 52 1015.1
20200401023029 67 208 1.0 3.0 0.00 0.00 0.00 52 1015.1
20200401022526 68 205 0.0 4.0 0.00 0.00 0.00 51 1015.0
20200401022030 68 189 0.0 4.0 0.00 0.00 0.00 50 1015.1
20200401021533 68 186 0.0 5.0 0.00 0.00 0.00 50 1015.1
20200401021032 69 172 1.0 6.0 0.00 0.00 0.00 49 1015.1
20200401020532 69 206 0.0 7.0 0.00 0.00 0.00 48 1015.1
20200401020028 70 200 2.0 7.0 0.00 0.00 0.00 47 1015.1
20200401015531 70 213 2.0 5.0 0.00 0.00 0.00 46 1015.1
20200401015031 70 159 0.0 6.0 0.00 0.00 0.00 46 1015.1
20200401014529 70 209 2.0 6.0 0.00 0.00 0.00 46 1015.1
20200401014028 70 195 3.0 6.0 0.00 0.00 0.00 47 1015.1
20200401013533 70 160 2.0 6.0 0.00 0.00 0.00 46 1015.1
20200401013033 70 211 1.0 6.0 0.00 0.00 0.00 46 1015.1
20200401012531 71 168 0.0 5.0 0.00 0.00 0.00 46 1015.2
20200401012032 71 188 0.0 8.0 0.00 0.00 0.00 45 1015.1
20200401011529 71 199 1.0 8.0 0.00 0.00 0.00 45 1015.2
20200401011030 71 121 7.0 8.0 0.00 0.00 0.00 45 1015.2
20200401010531 71 196 1.0 6.0 0.00 0.00 0.00 45 1015.3
20200401010029 72 227 2.0 6.0 0.00 0.00 0.00 44 1015.4
20200401005528 72 244 3.0 8.0 0.00 0.00 0.00 43 1015.4
20200401005032 72 225 2.0 8.0 0.00 0.00 0.00 43 1015.4
20200401004529 72 223 1.0 6.0 0.00 0.00 0.00 43 1015.5
20200401004028 72 183 3.0 6.0 0.00 0.00 0.00 43 1015.5
20200401003526 73 205 0.0 6.0 0.00 0.00 0.00 43 1015.6
20200401003028 73 215 1.0 6.0 0.00 0.00 0.00 43 1015.6
20200401002033 73 175 1.0 9.0 0.00 0.00 0.00 43 1015.7
20200401001529 73 182 2.0 5.0 0.00 0.00 0.00 43 1015.7
20200401001034 73 238 1.0 5.0 0.00 0.00 0.00 43 1015.8
20200401000531 74 183 1.0 5.0 0.00 0.00 0.00 43 1015.8
20200401000030 74 216 2.0 7.0 0.00 0.00 0.00 42 1015.8
20200331235531 74 236 2.0 7.0 0.00 0.00 0.00 42 1015.8
20200331235029 74 180 1.0 6.0 0.00 0.00 0.00 42 1015.9
20200331234535 74 187 2.0 5.0 0.00 0.00 0.00 42 1016.0
20200331234027 74 188 2.0 6.0 0.00 0.00 0.00 43 1016.0
20200331233032 74 182 3.0 9.0 0.00 0.00 0.00 43 1016.1
20200331232531 74 209 2.0 7.0 0.00 0.00 0.00 41 1016.3
20200331232029 75 239 5.0 10.0 0.00 0.00 0.00 41 1016.3
20200331231535 75 204 2.0 10.0 0.00 0.00 0.00 41 1016.3
20200331231031 75 230 2.0 8.0 0.00 0.00 0.00 42 1016.4
20200331230529 75 208 0.0 8.0 0.00 0.00 0.00 41 1016.5
20200331230028 75 159 4.0 8.0 0.00 0.00 0.00 42 1016.6
20200331225530 75 174 1.0 5.0 0.00 0.00 0.00 43 1016.6
20200331225026 74 275 1.0 5.0 0.00 0.00 0.00 44 1016.6
20200331224530 72 184 1.0 6.0 0.00 0.00 0.00 46 1016.7
20200331224032 73 95 5.0 7.0 0.00 0.00 0.00 44 1016.9
20200331223528 74 142 4.0 7.0 0.00 0.00 0.00 45 1016.9
20200331223031 74 163 2.0 7.0 0.00 0.00 0.00 43 1017.0
20200331222529 75 113 4.0 8.0 0.00 0.00 0.00 44 1017.1
20200331222026 73 271 1.0 8.0 0.00 0.00 0.00 45 1017.2
20200331221531 74 187 0.0 7.0 0.00 0.00 0.00 47 1017.3
20200331221028 75 175 2.0 7.0 0.00 0.00 0.00 44 1017.4
20200331220529 76 166 2.0 7.0 0.00 0.00 0.00 43 1017.4
20200331220031 75 178 2.0 7.0 0.00 0.00 0.00 43 1017.6
20200331215529 74 153 4.0 9.0 0.00 0.00 0.00 45 1017.5
20200331215032 74 132 0.0 9.0 0.00 0.00 0.00 43 1017.6
20200331214531 75 135 1.0 9.0 0.00 0.00 0.00 44 1017.7
20200331214028 74 171 8.0 9.0 0.00 0.00 0.00 44 1017.8
20200331213533 72 308 3.0 8.0 0.00 0.00 0.00 48 1017.8
20200331213032 73 143 2.0 8.0 0.00 0.00 0.00 47 1018.0
20200331212534 72 128 2.0 11.0 0.00 0.00 0.00 47 1018.1
20200331212031 73 176 2.0 11.0 0.00 0.00 0.00 46 1018.2
20200331211528 74 136 4.0 11.0 0.00 0.00 0.00 46 1018.3
20200331211027 74 61 4.0 10.0 0.00 0.00 0.00 44 1018.4
20200331210643 74 152 8.0 10.0 0.00 0.00 0.00 46 1018.5
20200331210031 74 86 1.0 10.0 0.00 0.00 0.00 45 1018.6
20200331205531 74 102 5.0 9.0 0.00 0.00 0.00 45 1018.6
20200331205028 73 106 4.0 6.0 0.00 0.00 0.00 47 1018.7
20200331204527 73 183 2.0 6.0 0.00 0.00 0.00 47 1018.8
20200331204032 72 293 0.0 7.0 0.00 0.00 0.00 46 1018.9
20200331203532 72 197 1.0 7.0 0.00 0.00 0.00 49 1019.0
20200331203029 72 105 5.0 9.0 0.00 0.00 0.00 47 1019.0
20200331202530 72 82 2.0 9.0 0.00 0.00 0.00 48 1019.1
20200331202032 72 180 1.0 9.0 0.00 0.00 0.00 47 1019.1
20200331201531 72 133 2.0 7.0 0.00 0.00 0.00 47 1019.2
20200331201033 73 153 5.0 9.0 0.00 0.00 0.00 46 1019.3
20200331200531 72 105 2.0 9.0 0.00 0.00 0.00 49 1019.5
20200331200028 71 162 5.0 8.0 0.00 0.00 0.00 49 1019.6
20200331195533 71 83 3.0 6.0 0.00 0.00 0.00 52 1019.6
20200331195030 69 167 2.0 6.0 0.00 0.00 0.00 52 1019.7
20200331194530 69 128 2.0 10.0 0.00 0.00 0.00 50 1019.8
20200331194032 71 182 0.0 10.0 0.00 0.00 0.00 49 1019.9
20200331193531 72 130 2.0 10.0 0.00 0.00 0.00 50 1019.9
20200331193029 71 180 3.0 6.0 0.00 0.00 0.00 52 1020.1
20200331192532 71 188 3.0 6.0 0.00 0.00 0.00 53 1020.3
20200331192031 70 88 1.0 7.0 0.00 0.00 0.00 52 1020.3
20200331191530 71 155 6.0 7.0 0.00 0.00 0.00 52 1020.4
20200331191027 70 121 2.0 6.0 0.00 0.00 0.00 53 1020.5
20200331190527 70 152 4.0 8.0 0.00 0.00 0.00 52 1020.5
20200331190030 69 161 5.0 8.0 0.00 0.00 0.00 53 1020.6
20200331185532 69 193 1.0 8.0 0.00 0.00 0.00 53 1020.6
20200331185032 70 142 8.0 7.0 0.00 0.00 0.00 57 1020.7
20200331184527 68 137 0.0 7.0 0.00 0.00 0.00 57 1020.8
20200331184029 68 142 2.0 7.0 0.00 0.00 0.00 59 1020.9
20200331183532 68 163 4.0 7.0 0.00 0.00 0.00 60 1021.0
20200331183032 67 184 2.0 7.0 0.00 0.00 0.00 60 1021.1
20200331182531 66 92 2.0 6.0 0.00 0.00 0.00 62 1021.1
20200331182031 66 55 1.0 6.0 0.00 0.00 0.00 62 1021.2
20200331181531 66 94 0.0 4.0 0.00 0.00 0.00 65 1021.3
20200331181029 64 57 0.0 4.0 0.00 0.00 0.00 64 1021.3
20200331180531 64 93 0.0 7.0 0.00 0.00 0.00 65 1021.4
20200331180031 64 148 0.0 7.0 0.00 0.00 0.00 66 1021.4
20200331175533 63 176 5.0 7.0 0.00 0.00 0.00 67 1021.4
20200331175028 63 146 4.0 6.0 0.00 0.00 0.00 67 1021.5
20200331174533 63 174 2.0 6.0 0.00 0.00 0.00 67 1021.5
20200331174031 62 175 1.0 6.0 0.00 0.00 0.00 68 1021.5
20200331173529 62 96 1.0 5.0 0.00 0.00 0.00 69 1021.7
20200331173028 62 102 1.0 6.0 0.00 0.00 0.00 70 1021.7
20200331172529 62 144 2.0 9.0 0.00 0.00 0.00 70 1021.7
20200331172031 62 192 3.0 9.0 0.00 0.00 0.00 70 1021.7
20200331171531 61 104 6.0 9.0 0.00 0.00 0.00 71 1021.6
20200331171028 61 167 0.0 7.0 0.00 0.00 0.00 72 1021.7
20200331170531 60 155 5.0 7.0 0.00 0.00 0.00 72 1021.7
20200331170031 60 144 2.0 5.0 0.00 0.00 0.00 72 1021.6
20200331165529 60 143 4.0 4.0 0.00 0.00 0.00 73 1021.7
20200331165033 59 157 2.0 7.0 0.00 0.00 0.00 73 1021.7
20200331164532 59 136 2.0 7.0 0.00 0.00 0.00 74 1021.6
20200331164028 59 157 1.0 6.0 0.00 0.00 0.00 73 1021.7
20200331163528 59 161 2.0 6.0 0.00 0.00 0.00 74 1021.6
20200331163032 59 163 4.0 6.0 0.00 0.00 0.00 73 1021.6
20200331162529 59 144 5.0 8.0 0.00 0.00 0.00 73 1021.7
20200331162033 59 160 4.0 8.0 0.00 0.00 0.00 73 1021.7
20200331161531 59 150 8.0 7.0 0.00 0.00 0.00 73 1021.7
20200331161029 59 159 4.0 6.0 0.00 0.00 0.00 76 1021.7
20200331160528 58 183 3.0 6.0 0.00 0.00 0.00 77 1021.7
20200331160030 57 134 1.0 6.0 0.00 0.00 0.00 79 1021.7
20200331155532 56 158 5.0 6.0 0.00 0.00 0.00 79 1021.7
20200331155034 56 137 1.0 4.0 0.00 0.00 0.00 80 1021.7
20200331154531 56 124 0.0 4.0 0.00 0.00 0.00 81 1021.8
20200331154029 56 95 2.0 4.0 0.00 0.00 0.00 82 1021.7
20200331153528 55 146 1.0 6.0 0.00 0.00 0.00 82 1021.6
20200331153031 55 157 1.0 6.0 0.00 0.00 0.00 83 1021.5
20200331152528 55 113 1.0 6.0 0.00 0.00 0.00 84 1021.7
20200331152028 55 110 0.0 4.0 0.00 0.00 0.00 86 1021.7
20200331151532 54 130 0.0 4.0 0.00 0.00 0.00 87 1021.7
20200331151033 54 123 0.0 5.0 0.00 0.00 0.00 87 1021.7
20200331150531 53 124 2.0 5.0 0.00 0.00 0.00 87 1021.8
20200331150029 53 121 1.0 6.0 0.00 0.00 0.00 87 1021.8
20200331145535 53 88 0.0 6.0 0.00 0.00 0.00 87 1021.8
20200331145030 53 93 4.0 5.0 0.00 0.00 0.00 87 1021.9
20200331144532 53 110 2.0 5.0 0.00 0.00 0.00 87 1021.9
20200331144027 53 130 0.0 4.0 0.00 0.00 0.00 87 1021.8
20200331143529 53 121 2.0 3.0 0.00 0.00 0.00 87 1021.9
20200331143031 53 81 1.0 3.0 0.00 0.00 0.00 87 1021.8
20200331142529 53 86 0.0 5.0 0.00 0.00 0.00 87 1021.7
20200331142028 53 95 1.0 5.0 0.00 0.00 0.00 87 1021.7
20200331141531 53 95 4.0 4.0 0.00 0.00 0.00 87 1021.7
20200331141031 53 88 0.0 4.0 0.00 0.00 0.00 87 1021.6
20200331140528 53 59 0.0 4.0 0.00 0.00 0.00 87 1021.5
20200331140027 53 112 2.0 4.0 0.00 0.00 0.00 86 1021.4
20200331135533 53 66 0.0 4.0 0.00 0.00 0.00 86 1021.5
20200331135031 53 57 2.0 4.0 0.00 0.00 0.00 86 1021.5
20200331134529 53 109 2.0 4.0 0.00 0.00 0.00 86 1021.4
20200331134027 53 101 1.0 4.0 0.00 0.00 0.00 85 1021.5
20200331133531 53 69 0.0 4.0 0.00 0.00 0.00 85 1021.5
20200331133029 53 91 1.0 2.0 0.00 0.00 0.00 85 1021.5
20200331132526 53 107 1.0 2.0 0.00 0.00 0.00 85 1021.4
20200331132028 53 142 0.0 4.0 0.00 0.00 0.00 85 1021.4
20200331131531 53 145 0.0 4.0 0.00 0.00 0.00 85 1021.4
20200331131031 52 137 1.0 4.0 0.00 0.00 0.00 85 1021.5
20200331130529 52 97 0.0 4.0 0.00 0.00 0.00 85 1021.5
20200331130028 52 126 0.0 4.0 0.00 0.00 0.00 85 1021.5
20200331125533 52 98 2.0 5.0 0.00 0.00 0.00 85 1021.3
20200331125032 52 148 0.0 5.0 0.00 0.00 0.00 85 1021.4
20200331124527 52 109 4.0 5.0 0.00 0.00 0.00 85 1021.4
20200331124027 52 111 0.0 5.0 0.00 0.00 0.00 85 1021.5
20200331123532 52 86 1.0 5.0 0.00 0.00 0.00 85 1021.5
20200331123027 52 61 0.0 5.0 0.00 0.00 0.00 85 1021.7
20200331122531 52 78 0.0 5.0 0.00 0.00 0.00 84 1021.7
20200331122029 52 96 0.0 4.0 0.00 0.00 0.00 84 1021.7
20200331121530 52 90 0.0 4.0 0.00 0.00 0.00 84 1021.8
20200331121030 52 65 0.0 1.0 0.00 0.00 0.00 84 1021.9
20200331120532 52 65 0.0 1.0 0.00 0.00 0.00 84 1022.0
20200331120032 52 65 0.0 1.0 0.00 0.00 0.00 84 1022.1
20200331115532 52 53 0.0 2.0 0.00 0.00 0.00 83 1022.1
20200331115029 52 50 0.0 3.0 0.00 0.00 0.00 83 1022.1
20200331114527 53 63 1.0 3.0 0.00 0.00 0.00 83 1022.0
20200331114031 53 69 1.0 2.0 0.00 0.00 0.00 83 1022.1
20200331113529 53 148 0.0 2.0 0.00 0.00 0.00 83 1022.1
20200331113028 53 145 0.0 5.0 0.00 0.00 0.00 82 1022.2